4XARY LLKS-LLIB

Flight info

Callsign 4XARY
Flight time N/A
Altitude 3000
Route KUSHNIR
Aircraft C152/L-V/N

Departure

Time 2026-05-01 15:14
Airport Kiryat Shmona Airport (LLKS)

Arrival

Time N/A
Airport Rosh Pina Airport (LLIB)
Time Latitude Longitude Altitude Speed Heading
2026-05-01 15:10 33.21336 35.59257 294 ft 7 kts 186°
2026-05-01 15:10 33.21283 35.59225 288 ft 11 kts 219°
2026-05-01 15:11 33.21217 35.59190 283 ft 6 kts 158°
2026-05-01 15:11 33.21207 35.59251 286 ft 6 kts 44°
2026-05-01 15:11 33.21226 35.59268 288 ft 0 kts 34°
2026-05-01 15:12 33.21391 35.59414 302 ft 53 kts 34°
2026-05-01 15:13 33.22387 35.60216 817 ft 59 kts 37°
2026-05-01 15:14 33.22618 35.61179 1090 ft 65 kts 105°
2026-05-01 15:14 33.22512 35.61698 1215 ft 70 kts 110°
2026-05-01 15:14 33.21838 35.62588 1466 ft 73 kts 139°
2026-05-01 15:15 33.21048 35.63338 1716 ft 75 kts 172°
2026-05-01 15:15 33.19958 35.63405 1900 ft 81 kts 182°
2026-05-01 15:16 33.18862 35.63332 2151 ft 77 kts 185°
2026-05-01 15:16 33.17783 35.63475 2374 ft 80 kts 172°
2026-05-01 15:17 33.16693 35.63692 2580 ft 79 kts 172°
2026-05-01 15:18 33.15067 35.63827 2913 ft 75 kts 179°
2026-05-01 15:18 33.14532 35.63845 2988 ft 80 kts 181°
2026-05-01 15:19 33.12748 35.63797 3117 ft 87 kts 183°
2026-05-01 15:19 33.11524 35.63888 3167 ft 91 kts 173°
2026-05-01 15:19 33.10901 35.64008 3187 ft 91 kts 171°
2026-05-01 15:20 33.09651 35.64262 3225 ft 93 kts 170°
2026-05-01 15:20 33.09017 35.64434 3233 ft 94 kts 167°
2026-05-01 15:20 33.08378 35.64541 3218 ft 95 kts 180°
2026-05-01 15:21 33.07722 35.64481 3235 ft 94 kts 189°
2026-05-01 15:21 33.07069 35.64364 3190 ft 97 kts 189°
2026-05-01 15:21 33.06412 35.64210 3138 ft 98 kts 213°
2026-05-01 15:21 33.05991 35.63564 3004 ft 102 kts 238°
2026-05-01 15:22 33.05060 35.62495 2936 ft 99 kts 193°
2026-05-01 15:22 33.04382 35.62300 2821 ft 102 kts 203°
2026-05-01 15:22 33.03723 35.61969 2714 ft 102 kts 203°
2026-05-01 15:23 33.03088 35.61574 2607 ft 102 kts 213°
2026-05-01 15:23 33.02503 35.61089 2495 ft 104 kts 218°
2026-05-01 15:23 33.01975 35.60520 2405 ft 100 kts 219°
2026-05-01 15:23 33.01336 35.60135 2241 ft 106 kts 206°
2026-05-01 15:24 33.00695 35.59715 2096 ft 107 kts 212°
2026-05-01 15:24 33.00045 35.59278 1911 ft 109 kts 204°
2026-05-01 15:24 32.99306 35.59180 1736 ft 108 kts 167°
2026-05-01 15:24 32.98598 35.59379 1691 ft 101 kts 169°
2026-05-01 15:25 32.97980 35.59725 1688 ft 98 kts 147°
2026-05-01 15:25 32.97386 35.60124 1658 ft 97 kts 155°
2026-05-01 15:25 32.96776 35.60456 1636 ft 96 kts 172°
2026-05-01 15:25 32.96551 35.60440 1618 ft 97 kts 197°
2026-05-01 15:26 32.95963 35.59573 1473 ft 84 kts 248°
2026-05-01 15:26 32.95903 35.59123 1432 ft 81 kts 285°
2026-05-01 15:27 32.97222 35.57787 1140 ft 73 kts 331°
2026-05-01 15:27 32.97650 35.57495 985 ft 62 kts 330°
2026-05-01 15:28 32.98560 35.56907 1045 ft 53 kts 323°
2026-05-01 15:28 32.98874 35.56655 1203 ft 57 kts 323°
2026-05-01 15:28 32.99195 35.56375 1344 ft 61 kts 338°
2026-05-01 15:29 32.99967 35.55915 1592 ft 74 kts 34°
2026-05-01 15:29 33.00407 35.56320 1668 ft 82 kts 39°
2026-05-01 15:29 33.01205 35.57332 1813 ft 91 kts 59°
2026-05-01 15:30 33.00895 35.58598 1768 ft 102 kts 164°
2026-05-01 15:31 32.98100 35.59411 1649 ft 99 kts 167°
2026-05-01 15:31 32.97526 35.58356 1394 ft 86 kts 259°
2026-05-01 15:32 32.98005 35.57261 907 ft 70 kts 345°
2026-05-01 15:32 32.98705 35.56779 1085 ft 56 kts 328°
2026-05-01 15:33 32.99832 35.55794 1478 ft 74 kts 331°
2026-05-01 15:34 33.01012 35.57138 1658 ft 90 kts 59°